Regional Weather Roundup
Issued by NWS

Home | Current Version | Previous Version | Text Only | Print | Product List | Glossary On
Versions: 1 2 3 4 5 6 7 8 9 10 11 12 13 14 15 16 17 18 19 20 21 22 23 24 25 26 27 28 29 30 31 32 33 34 35 36 37 38 39 40 41 42 43 44 45 46 47 48 49 50
000
ASUS43 KLMK 092210
RWRKY
KENTUCKY REGIONAL WEATHER ROUNDUP
NATIONAL WEATHER SERVICE LOUISVILLE KY
600 PM EDT WED JUL 09 2014

NOTE "FAIR" INDICATES FEW OR NO CLOUDS BELOW 12,000 FEET
WITH NO SIGNIFICANT WEATHER AND/OR OBSTRUCTIONS TO VISIBILITY.

KYZ001>023-026-027-061>063-070>075-092300-
WESTERN AND SOUTH CENTRAL KENTUCKY

CITY           SKY/WX    TMP DP  RH WIND       PRES   REMARKS
PADUCAH        SUNNY     87  61  41 NW6       29.97F
HENDERSON      MOSUNNY   84  63  48 W7        29.96F
OWENSBORO      MOSUNNY   85  61  44 NW9       29.97F
HOPKINSVILLE   SUNNY     86  60  41 NW9       29.97F
BOWLING GREEN  SUNNY     85  60  42 NW9       29.97S
GLASGOW        SUNNY     83  61  46 NW7       29.97S
$$

KYZ024-025-028>034-038-045-046-053-092300-
NORTH CENTRAL KENTUCKY

CITY           SKY/WX    TMP DP  RH WIND       PRES   REMARKS
LOUISVILLE/SDF MOSUNNY   87  57  35 W13       29.95F
LOUISVILLE/LOU SUNNY     85  55  35 NW9       29.95F
FORT KNOX      SUNNY     83  62  48 NW7       29.96F
$$

KYZ035>037-039>044-047>052-055>060-089>105-092300-
NORTHEAST KENTUCKY

CITY           SKY/WX    TMP DP  RH WIND       PRES   REMARKS
LEXINGTON      MOSUNNY   84  59  42 NW3       29.97S
COVINGTON      MOSUNNY   81  57  43 SW9       29.95F
FRANKFORT      SUNNY     84  56  38 VRB5      29.96S
$$

KYZ054-064>069-076>088-106>120-092300-
SOUTHEAST KENTUCKY

CITY           SKY/WX    TMP DP  RH WIND       PRES   REMARKS
JACKSON        MOSUNNY   81  60  48 VRB5      29.98S
LONDON         SUNNY     85  58  39 NW8       29.98S
SOMERSET       SUNNY     84  55  37 NW8       29.98S
MIDDLESBORO    MOSUNNY   84  65  52 SW3       29.98S
MONTICELLO     PTCLDY    86  63  45 NW12      29.98F
$$



USA.gov is the U.S. government's official web portal to all federal, state and local government web resources and services.